Flag for Spain Weather past 2 weeks in Oviedo, Spain

Now
74 °F

Mild.


Feels Like: 76 °F
Forecast: 62 / 69 °F
Wind: 6 mph from East

Location: Oviedo

Current Time: Jul 28, 2015 at 10:05:35 PM

Latest Report: Jul 28, 2015 at 9:00 PM


Visibility: 1 mi

Pressure: 29.93 "Hg

Humidity: 67%

Dew point: 63 °F

Location of OviedoLocation

Historic Weather in Oviedo — Graph

°F

Oviedo temperature yesterday

Maximum temperature yesterday: 74 °F (at 2:00 PM)
Minimum temperature yesterday: 61 °F (at 7:00 AM)
Average temperature yesterday: 67 °F

Past Weeks' High & Low Weather Summary

 TemperatureHumidityPressure
High87 °F (Jul 26, 2:00 PM)100% (Jul 16, 4:00 AM)30.23 "Hg (Jul 16, 4:00 AM)
Low56 °F (Jul 25, 7:00 AM)42% (Jul 26, 1:00 PM)29.87 "Hg (Jul 24, 12:00 PM)
Average69 °F80%30.04 "Hg
* Reported Jul 13 8:00 PM — Jul 28 8:00 PM, Oviedo, Weather by CustomWeather, © 2015

Note: Actual official high and low records may vary slightly from our data, if they occured in-between our weather recording intervals... More about our weather records

Advertising

Oviedo weather history for previous 24 hours

 ConditionsComfort  
Time TempWeatherWind HumidityBarometerVisibility
8:00 PM
Tue, Jul 28
76 °FPassing clouds.6 mph63%29.92 "Hg9 mi
7:00 PM78 °FWarm.8 mph60%29.91 "Hg12 mi
6:00 PM80 °FWarm.6 mph56%29.90 "Hg12 mi
5:00 PM80 °FPassing clouds.6 mph54%29.92 "Hg12 mi
4:00 PM80 °FWarm.7 mph52%29.92 "Hg12 mi
3:00 PM81 °FWarm.8 mph49%29.92 "Hg12 mi
2:00 PM83 °FScattered clouds.3 mph47%29.92 "Hg12 mi
1:00 PM80 °FWarm.2 mph53%29.94 "Hg12 mi
12:00 PM76 °FMild.3 mph58%29.96 "Hg12 mi
11:00 AM72 °FPassing clouds.2 mph66%29.99 "Hg1 mi
10:00 AM68 °FMild.2 mph72%30.00 "Hg12 mi
8:00 AM60 °FFog.1 mph95%30.04 "Hg5 mi
7:00 AM60 °FCool.3 mph94%30.06 "Hg12 mi
6:00 AM60 °FCool.1 mph92%30.06 "Hg12 mi
5:00 AM61 °FCool.2 mph89%30.06 "Hg12 mi
4:00 AM62 °FCool.3 mph89%30.06 "Hg12 mi
3:00 AM62 °FCool.2 mph89%30.08 "Hg12 mi
2:00 AM62 °FCool.1 mph87%30.10 "Hg12 mi
1:00 AM62 °FCool.2 mph89%30.10 "Hg12 mi
12:00 AM63 °FMild.2 mph88%30.11 "Hg12 mi
10:00 PM
Mon, Jul 27
63 °FMild.5 mph80%30.11 "Hg12 mi
Weather by CustomWeather, © 2015

See weather overviewHow to use our weather pages